Sigfox identifier Datetime Temperature Humidity SNR
0038AAB8 2018-10-09 09:03:22 20.7 38 18.5
0038AAB8 2018-10-09 07:57:09 20.7 38 20.4
0038AAB8 2018-10-09 05:44:39 20.7 38 20.4
0038AAB8 2018-10-09 04:38:23 20.7 38 20.3
0038AAB8 2018-10-09 01:19:40 20.7 38 20.2
0038AAB8 2018-10-09 00:13:26 20.7 38 20.2
0038AAB8 2018-10-08 23:07:14 20.7 38 18.3
0038AAB8 2018-10-08 22:01:02 20.7 38 18.1
0038AAB8 2018-10-08 20:54:49 20.7 38 18.1
0038AAB8 2018-10-08 19:48:39 20.7 38 18.3
0038AAB8 2018-10-08 18:42:29 20.7 38 18.2
0038AAB8 2018-10-08 17:36:12 20.7 38 18.2
0038AAB8 2018-10-08 16:30:02 20.7 38 18.2
0038AAB8 2018-10-08 15:23:46 20.7 38 18.2
0038AAB8 2018-10-08 13:11:24 20.6 38 18.2
0038AAB8 2018-10-08 10:59:03 20.5 37 18.3
0038AAB8 2018-10-08 09:52:50 20.5 37 18.3
0038AAB8 2018-10-08 08:46:35 20.5 38 20.2
0038AAB8 2018-10-08 07:40:21 20.5 38 20.4
0038AAB8 2018-10-08 06:34:08 20.5 38 20.4
0038AAB8 2018-10-08 05:27:58 20.5 38 20.3
0038AAB8 2018-10-08 04:21:46 20.5 38 20.3
0038AAB8 2018-10-08 03:15:27 20.5 39 20.4
0038AAB8 2018-10-08 02:09:13 20.5 39 20.4
0038AAB8 2018-10-08 01:02:59 20.5 39 18.4
0038AAB8 2018-10-07 23:56:44 20.6 39 18.6
0038AAB8 2018-10-07 22:50:31 20.7 39 18.6
0038AAB8 2018-10-07 21:44:17 20.6 39 18.4
0038AAB8 2018-10-07 20:38:03 20.7 39 18.7
0038AAB8 2018-10-07 19:31:49 20.6 39 18.7
0038AAB8 2018-10-07 18:25:34 20.7 39 18.7
0038AAB8 2018-10-07 17:19:18 20.7 39 18.5
0038AAB8 2018-10-07 16:13:03 20.7 40 18.6
0038AAB8 2018-10-07 15:06:50 20.7 40 18.6
0038AAB8 2018-10-07 14:00:36 20.7 40 18.5
0038AAB8 2018-10-07 12:54:18 20.7 40 18.5
0038AAB8 2018-10-07 11:48:06 20.7 40 18.7
0038AAB8 2018-10-07 10:41:55 20.7 40 18.8
0038AAB8 2018-10-07 09:35:39 20.7 40 18.8
0038AAB8 2018-10-07 08:29:26 20.7 40 18.9
0038AAB8 2018-10-07 07:23:12 20.7 40 19.1
0038AAB8 2018-10-07 06:16:59 20.8 40 19.2
0038AAB8 2018-10-07 05:10:46 20.7 40 16.4
0038AAB8 2018-10-07 04:04:34 20.9 40 16.2
0038AAB8 2018-10-07 02:58:20 20.8 40 16.3
0038AAB8 2018-10-07 01:52:07 20.9 40 16.6
0038AAB8 2018-10-07 00:45:53 20.9 41 19.3
0038AAB8 2018-10-06 23:39:40 20.9 41 19.4
0038AAB8 2018-10-06 22:33:26 20.9 41 19.4
0038AAB8 2018-10-06 21:27:17 20.9 41 19.5
0038AAB8 2018-10-06 20:20:56 20.9 41 19.4
0038AAB8 2018-10-06 19:14:43 20.9 41 19.4
0038AAB8 2018-10-06 18:08:27 20.9 41 19.3
0038AAB8 2018-10-06 17:02:13 20.9 41 19.2
0038AAB8 2018-10-06 15:56:02 20.9 41 19
0038AAB8 2018-10-06 14:49:47 20.9 41 19
0038AAB8 2018-10-06 13:43:32 20.9 41 19.1
0038AAB8 2018-10-06 12:37:19 20.9 41 19
0038AAB8 2018-10-06 11:31:05 21 41 18.9
0038AAB8 2018-10-06 10:24:47 20.9 41 18.9
0038AAB8 2018-10-06 09:18:32 21 41 18.8
0038AAB8 2018-10-06 08:12:16 21 41 18.6
0038AAB8 2018-10-06 07:06:02 21.1 41 18.5
0038AAB8 2018-10-06 05:59:44 21.1 42 18.8
0038AAB8 2018-10-06 04:53:29 21.1 42 18.5
0038AAB8 2018-10-06 03:47:11 21.1 42 18.3
0038AAB8 2018-10-06 02:40:54 21.1 42 18.2
0038AAB8 2018-10-06 01:34:37 21.1 42 18.3
0038AAB8 2018-10-06 00:28:19 21.1 42 18.3
0038AAB8 2018-10-05 23:21:59 21.2 42 18.2
0038AAB8 2018-10-05 22:15:44 21.3 42 18.1
0038AAB8 2018-10-05 21:09:27 21.3 42 14.1
0038AAB8 2018-10-05 20:03:12 21.3 42 13.8
0038AAB8 2018-10-05 18:56:55 21.3 42 13
0038AAB8 2018-10-05 17:50:40 21.3 42 12.9
0038AAB8 2018-10-05 16:44:27 21.2 42 12.9
0038AAB8 2018-10-05 15:38:07 21.1 41 13
0038AAB8 2018-10-05 14:31:52 21 40 13.1
0038AAB8 2018-10-05 12:19:20 20.9 39 12.9
0038AAB8 2018-10-05 09:00:34 20.5 35 13.1
0038AAB8 2018-10-05 07:54:22 20.4 34 13.3
0038AAB8 2018-10-05 06:48:09 20.4 34 13.4
0038AAB8 2018-10-05 05:41:50 20.5 34 13.5
0038AAB8 2018-10-05 04:35:36 20.5 34 13.7
0038AAB8 2018-10-05 03:29:19 20.5 34 13.9
0038AAB8 2018-10-05 02:22:59 20.6 34 14.2
0038AAB8 2018-10-05 01:16:41 20.7 34 14.5
0038AAB8 2018-10-05 00:10:27 20.8 34 14.6
0038AAB8 2018-10-04 23:04:09 20.9 35 13.1
0038AAB8 2018-10-04 21:57:52 20.9 34 13.6
0038AAB8 2018-10-04 20:51:35 20.9 34 13.8
0038AAB8 2018-10-04 19:45:21 20.9 34 14.3
0038AAB8 2018-10-04 18:39:03 20.9 34 12.4
0038AAB8 2018-10-04 17:32:49 20.9 34 13.3
0038AAB8 2018-10-04 13:07:33 20.5 34 14.2
0038AAB8 2018-10-04 10:54:55 20.7 36 15.4
0038AAB8 2018-10-04 09:48:32 20.3 42 0